Latest Coastal Weather Observations for Mackay

IDQ60701

Issued at 3:21 am EST Wednesday 28 June 2017 (issued every 10 minutes, with the page automatically refreshed every 10 minutes)

About coastal observations | Map of coastal stations | Coastal observations for QLD | Marine services | Other Formats
Station Details ID: 033119 Name: MACKAY M.O Lat: -21.12 Lon: 149.22 Height: 30.26 m
Data from the previous 72 hours. | See also: Recent months at Mackay
Date/Time
EST
Temp
°C
Wind Pressure Rain since
9am
mm
Weather Cloud Vis
km
Sea
Height
m
Swell
Dir  Spd
kts
Gust
kts
hPa Trend Height
m
Period
s
Dir
28/03:00am 18.0 S 4 6 1019.8 - 0.0 - - - - - - -
28/02:30am 18.3 S 4 5 1020.0 - 0.0 - - - - - - -
28/02:00am 20.3 ESE 5 7 1020.3 - 0.0 - - - - - - -
28/01:30am 19.8 ESE 5 8 1020.6 - 0.0 - - - - - - -
28/01:00am 19.5 SE 5 7 1020.7 - 0.0 - - - - - - -
28/12:30am 20.1 ESE 5 8 1020.9 - 0.0 - - - - - - -
28/12:00am 20.0 SE 5 9 1020.9 - 0.0 - - - - - - -
 
Date/Time
EST
Temp
°C
Wind Pressure Rain since
9am
mm
Weather Cloud Vis
km
Sea
Height
m
Swell
Dir  Spd
kts
Gust
kts
hPa Trend Height
m
Period
s
Dir
27/11:30pm 20.0 SE 6 9 1021.0 - 0.0 - Partly cloudy - - - - -
27/11:00pm 19.9 SSE 6 10 1021.2 - 0.0 - - - - - - -
27/10:30pm 19.8 SSE 6 9 1021.2 - 0.0 - - - - - - -
27/10:00pm 20.1 SE 6 10 1021.4 - 0.0 - Partly cloudy - - - - -
27/09:30pm 20.3 SSE 6 10 1021.5 - 0.0 - Partly cloudy - - - - -
27/09:00pm 20.2 SSE 7 10 1021.4 F 0.0 - Partly cloudy - - - - -
27/08:30pm 19.8 SSE 7 9 1021.3 - 0.0 - Partly cloudy - - - - -
27/08:00pm 19.9 SSE 6 9 1021.1 - 0.0 - - - - - - -
27/07:30pm 20.1 SSE 5 8 1020.9 - 0.0 - - - - - - -
27/07:00pm 20.1 SE 6 9 1020.9 - 0.0 - - - - - - -
27/06:30pm 20.4 SE 6 9 1021.0 - 0.0 - - - - - - -
27/06:00pm 20.5 SE 7 11 1020.8 R 0.0 - - - - - - -
27/05:30pm 20.7 SE 7 11 1020.6 - 0.0 - - - - - - -
27/05:00pm 21.4 SE 7 11 1020.6 - 0.0 - Cloudy - - - - -
27/04:30pm 21.5 SE 8 15 1020.3 - 0.0 - Partly cloudy - - - - -
27/04:00pm 21.9 SSE 8 12 1020.0 - 0.0 - Partly cloudy - - - - -
27/03:30pm 21.9 SSE 9 15 1019.7 - 0.0 - Partly cloudy - - - - -
27/03:00pm 22.4 SSE 10 15 1019.7 R 0.0 - Cloudy - - - - -
27/02:30pm 22.8 SSE 10 16 1019.7 - 0.0 - Partly cloudy - - - - -
27/02:00pm 23.1 SSE 9 15 1019.7 - 0.0 - Partly cloudy - - - - -
27/01:30pm 21.6 SSE 10 14 1020.0 - 0.0 - Partly cloudy - - - - -
27/01:00pm 21.8 SSE 10 17 1020.2 - 0.0 - Partly cloudy - - - - -
27/12:30pm 22.6 SSE 11 18 1020.5 - 0.0 - Partly cloudy - - - - -
27/12:00pm 22.8 SSE 11 16 1020.9 R 0.0 - Partly cloudy - - - - -
27/11:30am 22.2 SSE 10 15 1021.4 - 0.0 - Partly cloudy - - - - -
27/11:00am 22.5 SSE 9 15 1021.3 - 0.0 - Partly cloudy - - - - -
27/10:30am 20.7 SSE 10 15 1021.5 - 0.0 - Partly cloudy - - - - -
27/10:00am 21.1 SSE 10 17 1021.7 - 0.0 - Partly cloudy - - - - -
27/09:30am 21.0 SSE 9 14 1021.6 - 0.0 - - - - - - -
27/09:14am 20.5 S 10 15 1021.5 - 0.0 - Partly cloudy - - - - -
27/09:00am 20.2 S 9 14 1021.5 R 0.2 - Partly cloudy - - - - -
27/08:31am 18.5 SSW 8 11 1021.4 - 0.2 - Partly cloudy - - - - -
27/08:30am 18.5 S 8 11 1021.4 - 0.2 - Partly cloudy - - - - -
27/08:00am 17.0 SSW 7 8 1021.1 - 0.2 - Partly cloudy - - - - -
27/07:30am 16.1 SSW 7 8 1020.8 - 0.2 - Cloudy - - - - -
27/07:00am 15.4 SW 6 7 1020.4 - 0.2 - Partly cloudy - - - - -
27/06:30am 15.4 SW 6 8 1020.1 - 0.2 - Partly cloudy - - - - -
27/06:00am 15.3 SW 6 8 1019.8 F 0.2 - Partly cloudy - - - - -
27/05:30am 15.3 SW 7 9 1019.6 - 0.2 - Partly cloudy - - - - -
27/05:00am 15.4 SW 6 7 1019.6 - 0.2 - - - - - - -
27/04:30am 15.3 SW 7 8 1019.6 - 0.2 - - - - - - -
27/04:00am 15.5 SW 7 9 1019.7 - 0.2 - Partly cloudy - - - - -
27/03:30am 15.6 SW 7 9 1019.8 - 0.2 - Partly cloudy - - - - -
27/03:00am 15.4 SW 7 9 1020.1 - 0.2 - Mostly clear - - - - -
27/02:30am 15.5 WSW 6 7 1020.2 - 0.2 - Partly cloudy - - - - -
27/02:00am 15.6 SW 6 8 1020.1 - 0.2 - - - - - - -
27/01:30am 15.7 SW 6 7 1020.2 - 0.2 - - - - - - -
27/01:00am 15.9 SW 6 7 1020.4 - 0.2 - Partly cloudy - - - - -
27/12:30am 16.2 SW 6 6 1020.5 - 0.2 - Partly cloudy - - - - -
27/12:00am 16.4 SW 5 7 1020.5 - 0.2 - - - - - - -
 
Date/Time
EST
Temp
°C
Wind Pressure Rain since
9am
mm
Weather Cloud Vis
km
Sea
Height
m
Swell
Dir  Spd
kts
Gust
kts
hPa Trend Height
m
Period
s
Dir
26/11:30pm 16.5 SW 5 7 1020.6 - 0.2 - - - - - - -
26/11:00pm 16.7 SW 5 7 1020.9 - 0.2 - - - - - - -
26/10:30pm 16.8 SW 5 6 1021.0 - 0.2 - - - - - - -
26/10:00pm 16.9 SSW 6 7 1021.0 - 0.2 - - - - - - -
26/09:30pm 17.5 SSW 5 6 1020.8 - 0.2 - - - - - - -
26/09:00pm 17.8 SSW 6 8 1020.7 F 0.2 - - - - - - -
26/08:30pm 18.2 SSW 5 7 1020.4 - 0.2 - - - - - - -
26/08:00pm 19.4 SSE 7 11 1020.2 - 0.2 - - - - - - -
26/07:30pm 19.3 SSE 7 10 1019.9 - 0.2 - - - - - - -
26/07:00pm 19.4 SSE 7 10 1019.8 - 0.2 - - - - - - -
26/06:30pm 19.6 SSE 7 9 1019.6 - 0.2 - - - - - - -
26/06:00pm 19.5 SSE 7 10 1019.4 R 0.2 - - - - - - -
26/05:30pm 19.7 SSE 6 9 1019.1 - 0.2 - - - - - - -
26/05:00pm 20.5 SSE 7 10 1019.1 - 0.2 - - - - - - -
26/04:30pm 21.2 SSE 7 11 1018.9 - 0.2 - - - - - - -
26/04:00pm 21.7 SSE 7 11 1018.7 - 0.2 - - - - - - -
26/03:30pm 22.2 SSE 6 9 1018.6 - 0.2 - - - - - - -
26/03:00pm 22.3 SSE 7 11 1018.6 R 0.2 - - - - - - -
26/02:30pm 22.6 SSE 6 9 1018.6 - 0.2 - - - - - - -
26/02:00pm 22.7 SSE 7 10 1018.8 - 0.2 - - - - - - -
26/01:30pm 23.0 SSE 6 11 1019.0 - 0.2 - - - - - - -
26/01:00pm 23.2 SSE 6 9 1019.3 - 0.2 - - - - - - -
26/12:30pm 23.0 SSE 7 11 1019.7 - 0.2 - - - - - - -
26/12:00pm 22.6 SSE 8 13 1020.0 R 0.2 - - - - - - -
26/11:30am 22.3 SSE 8 11 1020.4 - 0.2 - - - - - - -
26/11:00am 21.7 SSE 7 10 1020.7 - 0.2 - - - - - - -
26/10:30am 21.4 S 7 11 1020.5 - 0.0 - - - - - - -
26/10:00am 20.7 S 7 11 1020.5 - 0.0 - - - - - - -
26/09:30am 19.5 S 8 11 1020.4 - 0.0 - - - - - - -
26/09:00am 18.8 SSW 7 9 1020.4 R 0.0 - - - - - - -
26/08:30am 16.9 SSW 6 7 1020.3 - 0.0 - - - - - - -
26/08:00am 15.2 SW 7 8 1020.1 - 0.0 - - - - - - -
26/07:30am 13.8 SW 7 9 1019.6 - 0.0 - - - - - - -
26/07:00am 13.2 SW 7 9 1019.2 - 0.0 - - - - - - -
26/06:30am 13.3 SW 6 8 1018.7 - 0.0 - - - - - - -
26/06:00am 13.5 SW 7 9 1018.4 R 0.0 - - - - - - -
26/05:30am 13.7 WSW 6 8 1018.1 - 0.0 - - - - - - -
26/05:00am 13.9 WSW 7 9 1018.0 - 0.0 - - - - - - -
26/04:30am 14.2 WSW 7 9 1017.8 - 0.0 - - - - - - -
26/04:00am 14.2 SW 7 9 1017.8 - 0.0 - - - - - - -
26/03:30am 14.5 WSW 7 10 1017.7 - 0.0 - - - - - - -
26/03:00am 14.5 WSW 7 9 1017.8 - 0.0 - - - - - - -
26/02:30am 14.5 SW 7 9 1018.0 - 0.0 - - - - - - -
26/02:00am 14.7 SW 7 9 1018.1 - 0.0 - - - - - - -
26/01:30am 15.0 WSW 7 9 1018.3 - 0.0 - - - - - - -
26/01:00am 14.9 SW 7 9 1018.5 - 0.0 - - - - - - -
26/12:30am 15.0 SW 7 9 1018.9 - 0.0 - - - - - - -
26/12:00am 15.3 SW 7 9 1019.0 - 0.0 - - - - - - -
 
Date/Time
EST
Temp
°C
Wind Pressure Rain since
9am
mm
Weather Cloud Vis
km
Sea
Height
m
Swell
Dir  Spd
kts
Gust
kts
hPa Trend Height
m
Period
s
Dir
25/11:30pm 15.8 SW 7 9 1019.1 - 0.0 - - - - - - -
25/11:00pm 16.1 SW 7 8 1019.1 - 0.0 - - - - - - -
25/10:30pm 16.0 SW 7 8 1019.3 - 0.0 - - - - - - -
25/10:00pm 16.3 SW 6 7 1019.1 - 0.0 - - - - - - -
25/09:30pm 16.7 SW 6 8 1019.2 - 0.0 - - - - - - -
25/09:00pm 17.0 SW 7 8 1019.1 R 0.0 - - - - - - -
25/08:30pm 17.5 SW 6 7 1018.8 - 0.0 - - - - - - -
25/08:00pm 17.8 SW 5 6 1018.5 - 0.0 - - - - - - -
25/07:30pm 18.3 SSW 5 6 1018.2 - 0.0 - - - - - - -
25/07:00pm 18.3 SSW 5 6 1018.0 - 0.0 - - - - - - -
25/06:30pm 18.7 SSE 4 5 1017.5 - 0.0 - - - - - - -
25/06:00pm 19.6 ESE 3 5 1017.1 F 0.0 - - - - - - -
25/05:30pm 20.1 E 4 6 1016.9 - 0.0 - - - - - - -
25/05:00pm 20.6 ESE 4 6 1016.8 - 0.0 - - - - - - -
25/04:30pm 21.1 ESE 5 7 1017.0 - 0.0 - - - - - - -
25/04:00pm 21.3 ESE 5 8 1017.0 - 0.0 - - - - - - -
25/03:30pm 21.6 ESE 5 9 1016.9 - 0.0 - - - - - - -
25/03:00pm 21.6 ESE 5 8 1017.0 R 0.0 - - - - - - -
25/02:30pm 21.4 SE 6 9 1017.1 - 0.0 - - - - - - -
25/02:00pm 22.3 SE 6 9 1017.3 - 0.0 - Partly cloudy - - - - -
25/01:30pm 22.1 SE 6 10 1017.3 - 0.0 - Partly cloudy - - - - -
25/01:00pm 22.4 SSE 7 11 1017.5 - 0.0 - - - - - - -
25/12:30pm 22.2 SSE 7 11 1017.6 - 0.0 - - - - - - -
25/12:00pm 21.9 SSE 7 11 1017.9 F 0.0 - - - - - - -
25/11:30am 22.2 SSE 7 10 1018.1 - 0.0 - - - - - - -
25/11:00am 21.2 SSE 6 8 1018.4 - 0.0 - - - - - - -
25/10:30am 21.0 SSE 7 9 1018.7 - 0.0 - - - - - - -
25/10:00am 20.8 S 7 10 1019.0 - 0.0 - - - - - - -
25/09:30am 20.2 SSW 4 8 1018.9 - 0.0 - - - - - - -
25/09:00am 18.3 SW 5 7 1019.1 R 0.0 - - - - - - -
25/08:30am 16.6 SW 7 9 1018.8 - 0.0 - - - - - - -
25/08:00am 14.9 SW 7 9 1018.4 - 0.0 - - - - - - -
25/07:30am 13.3 WSW 7 9 1018.0 - 0.0 - - - - - - -
25/07:00am 12.9 SW 8 9 1017.9 - 0.0 - Partly cloudy - - - - -
25/06:30am 12.7 WSW 7 9 1017.7 - 0.0 - Partly cloudy - - - - -
25/06:00am 12.7 WSW 7 9 1017.3 F 0.0 - - - - - - -
25/05:30am 13.0 WSW 8 10 1016.9 - 0.0 - - - - - - -
25/05:00am 13.2 SW 8 11 1016.7 - 0.0 - - - - - - -
25/04:30am 13.3 SW 7 9 1016.7 - 0.0 - Partly cloudy - - - - -
25/04:00am 13.6 SW 7 10 1016.8 - 0.0 - Partly cloudy - - - - -
25/03:30am 14.2 SW 8 10 1017.1 - 0.0 - Partly cloudy - - - - -

Other Formats:

Comma delimited format used in spreadsheet applications
http://www.bom.gov.au/fwo/IDQ60701/IDQ60701.94367.axf

JavaScript Object Notation format (JSON) in row-major order
http://www.bom.gov.au/fwo/IDQ60701/IDQ60701.94367.json